Location: Unspecified
(0.0000°N, 0.0000°E)
Time: 18:56:34
(UTC+00:00)

Explorer 7 - Pass Details

Date: 27 November 2019
Orbit: 485 x 680 km, 50.3° (Epoch: 08 December)

Event Time Altitude Azimuth Distance (km) Brightness Sun altitude
Rises 16:55:13 0° 198° (SSW) 2,928 11.1 12.2°
Reaches altitude 10° 16:57:46 10° 186° (S) 2,046 10.2 11.6°
Maximum altitude 17:01:51 28° 127° (SE) 1,227 8.4 10.7°
Drops below altitude 10° 17:06:02 10° 67° (ENE) 2,099 9.2 9.7°
Sets 17:08:40 0° 56° (NE) 3,018 9.9 9.1°
